• In Uzbekistan
  • List of Countries
  • For 7 days
  • Water Temperature
  • Satellite Maps
  • Weather Map
  • Weather Widgets
  • user-avatar
    Login

    Hourly Weather Carmarthen

    Today, 18 September, Tuesday

    Time Temperature Precipitation Wind Pressure Humidity
    00:00 +16°C° 0 mm 8 mps 744 mmHg 92%
    01:00 +16°C° 1.3 mm 7 mps 743 mmHg 94%
    02:00 +15°C° 1.3 mm 7 mps 743 mmHg 95%
    03:00 +15°C° 1.3 mm 6 mps 742 mmHg 97%
    04:00 +15°C° 0.7 mm 6 mps 741 mmHg 97%
    05:00 +15°C° 0.7 mm 5 mps 741 mmHg 97%
    06:00 +15°C° 0 mm 4 mps 742 mmHg 97%
    07:00 +15°C° 0 mm 5 mps 742 mmHg 96%
    08:00 +15°C° 0 mm 6 mps 743 mmHg 96%
    09:00 +15°C° 0 mm 7 mps 744 mmHg 95%
    10:00 +15°C° 0 mm 7 mps 744 mmHg 91%
    11:00 +15°C° 0 mm 7 mps 745 mmHg 88%
    12:00 +15°C° 0 mm 8 mps 746 mmHg 85%
    13:00 +15°C° 0 mm 7 mps 746 mmHg 84%
    14:00 +16°C° 0 mm 7 mps 746 mmHg 83%
    15:00 +16°C° 0 mm 7 mps 746 mmHg 82%
    16:00 +15°C° 0.3 mm 7 mps 746 mmHg 83%
    17:00 +15°C° 0.3 mm 7 mps 746 mmHg 84%
    18:00 +13°C° 0.3 mm 8 mps 746 mmHg 85%
    19:00 +12°C° 0 mm 8 mps 747 mmHg 83%
    20:00 +12°C° 0 mm 9 mps 747 mmHg 82%
    21:00 +11°C° 0 mm 9 mps 748 mmHg 80%
    22:00 +11°C° 0 mm 9 mps 748 mmHg 79%
    23:00 +10°C° 0 mm 9 mps 748 mmHg 79%

    Tomorrow, 19 September, Wednesday

    Time Temperature Precipitation Wind Pressure Humidity
    00:00 +10°C° 0 mm 9 mps 748 mmHg 78%
    01:00 +10°C° 0 mm 9 mps 748 mmHg 79%
    02:00 +11°C° 0 mm 9 mps 748 mmHg 79%
    03:00 +11°C° 0 mm 9 mps 748 mmHg 79%
    04:00 +11°C° 0.5 mm 10 mps 746 mmHg 83%
    05:00 +11°C° 0.5 mm 11 mps 745 mmHg 87%
    06:00 +10°C° 0.5 mm 12 mps 744 mmHg 91%
    07:00 +12°C° 1.3 mm 13 mps 743 mmHg 90%
    08:00 +12°C° 1.3 mm 14 mps 742 mmHg 89%
    09:00 +13°C° 1.3 mm 15 mps 741 mmHg 89%
    10:00 +12°C° 0.6 mm 14 mps 742 mmHg 83%
    11:00 +12°C° 0.6 mm 14 mps 744 mmHg 77%
    12:00 +10°C° 0.6 mm 13 mps 745 mmHg 71%
    13:00 +10°C° 0 mm 13 mps 746 mmHg 66%
    14:00 +10°C° 0 mm 12 mps 747 mmHg 61%
    15:00 +12°C° 0 mm 12 mps 747 mmHg 56%
    16:00 +10°C° 0 mm 12 mps 748 mmHg 59%
    17:00 +9°C° 0 mm 12 mps 748 mmHg 62%
    18:00 +9°C° 0 mm 12 mps 749 mmHg 64%
    19:00 +8°C° 0 mm 12 mps 750 mmHg 66%
    20:00 +8°C° 0 mm 11 mps 750 mmHg 68%
    21:00 +8°C° 0 mm 11 mps 751 mmHg 69%
    22:00 +8°C° 0 mm 11 mps 751 mmHg 70%
    23:00 +7°C° 0 mm 11 mps 751 mmHg 70%

    Day after tomorrow, 20 September, Thursday

    Time Temperature Precipitation Wind Pressure Humidity
    00:00 +7°C° 0 mm 10 mps 751 mmHg 70%
    01:00 +7°C° 0 mm 10 mps 751 mmHg 72%
    02:00 +7°C° 0 mm 9 mps 751 mmHg 73%
    03:00 +7°C° 0 mm 9 mps 751 mmHg 74%
    04:00 +6°C° 0 mm 8 mps 751 mmHg 76%
    05:00 +6°C° 0 mm 8 mps 751 mmHg 78%
    06:00 +6°C° 0 mm 7 mps 752 mmHg 80%
    07:00 +8°C° 0 mm 7 mps 752 mmHg 78%
    08:00 +9°C° 0 mm 6 mps 752 mmHg 76%
    09:00 +9°C° 0 mm 6 mps 752 mmHg 74%
    10:00 +10°C° 0 mm 6 mps 752 mmHg 72%
    11:00 +12°C° 0 mm 5 mps 752 mmHg 69%
    12:00 +12°C° 0 mm 5 mps 751 mmHg 67%
    13:00 +12°C° 0 mm 5 mps 751 mmHg 68%
    14:00 +12°C° 0 mm 4 mps 751 mmHg 69%
    15:00 +12°C° 0 mm 4 mps 750 mmHg 70%
    16:00 +11°C° 0.1 mm 3 mps 750 mmHg 74%
    17:00 +10°C° 0.1 mm 3 mps 750 mmHg 77%
    18:00 +9°C° 0.1 mm 3 mps 749 mmHg 81%
    19:00 +8°C° 0.1 mm 4 mps 749 mmHg 83%
    20:00 +7°C° 0.1 mm 4 mps 749 mmHg 84%
    21:00 +7°C° 0.1 mm 4 mps 749 mmHg 86%
    22:00 +7°C° 0.2 mm 5 mps 749 mmHg 86%
    23:00 +7°C° 0.2 mm 5 mps 749 mmHg 87%

    21 September, Friday

    Time Temperature Precipitation Wind Pressure Humidity
    00:00 +5°C° 0.2 mm 6 mps 749 mmHg 87%
    01:00 +5°C° 0.1 mm 6 mps 750 mmHg 87%
    02:00 +5°C° 0.1 mm 7 mps 750 mmHg 87%
    03:00 +5°C° 0.1 mm 7 mps 750 mmHg 87%
    04:00 +5°C° 0.1 mm 8 mps 750 mmHg 87%
    05:00 +5°C° 0.1 mm 8 mps 750 mmHg 86%
    06:00 +6°C° 0.1 mm 9 mps 751 mmHg 85%
    07:00 +6°C° 0.5 mm 9 mps 751 mmHg 85%
    08:00 +7°C° 0.5 mm 9 mps 752 mmHg 84%
    09:00 +8°C° 0.5 mm 9 mps 753 mmHg 84%
    10:00 +10°C° 0.1 mm 9 mps 753 mmHg 79%
    11:00 +11°C° 0.1 mm 9 mps 754 mmHg 75%
    12:00 +12°C° 0.1 mm 8 mps 755 mmHg 70%
    13:00 +12°C° 0.1 mm 8 mps 755 mmHg 70%
    14:00 +12°C° 0.1 mm 8 mps 756 mmHg 71%
    15:00 +11°C° 0.1 mm 8 mps 756 mmHg 71%
    16:00 +11°C° 0.1 mm 7 mps 757 mmHg 74%
    17:00 +10°C° 0.1 mm 7 mps 757 mmHg 77%
    18:00 +9°C° 0.1 mm 7 mps 757 mmHg 80%
    19:00 +8°C° 0 mm 7 mps 758 mmHg 82%
    20:00 +6°C° 0 mm 7 mps 759 mmHg 83%
    21:00 +6°C° 0 mm 7 mps 759 mmHg 84%
    22:00 +6°C° 0 mm 7 mps 760 mmHg 84%
    23:00 +5°C° 0 mm 7 mps 760 mmHg 85%

    22 September, Saturday

    Time Temperature Precipitation Wind Pressure Humidity
    00:00 +5°C° 0 mm 7 mps 760 mmHg 85%
    01:00 +5°C° 0 mm 6 mps 761 mmHg 86%
    02:00 +5°C° 0 mm 6 mps 761 mmHg 86%
    03:00 +5°C° 0 mm 6 mps 761 mmHg 87%
    04:00 +6°C° 0 mm 5 mps 761 mmHg 87%
    05:00 +6°C° 0 mm 5 mps 761 mmHg 87%
    06:00 +6°C° 0 mm 4 mps 762 mmHg 87%
    07:00 +7°C° 0 mm 4 mps 762 mmHg 84%
    08:00 +9°C° 0 mm 3 mps 762 mmHg 81%
    09:00 +9°C° 0 mm 3 mps 762 mmHg 78%
    10:00 +10°C° 0 mm 3 mps 762 mmHg 76%
    11:00 +10°C° 0 mm 3 mps 762 mmHg 74%
    12:00 +11°C° 0 mm 3 mps 762 mmHg 72%
    13:00 +11°C° 0.2 mm 4 mps 761 mmHg 75%
    14:00 +10°C° 0.2 mm 4 mps 760 mmHg 79%
    15:00 +9°C° 0.2 mm 5 mps 759 mmHg 82%
    16:00 +9°C° 1.3 mm 6 mps 758 mmHg 86%
    17:00 +8°C° 1.3 mm 7 mps 757 mmHg 90%
    18:00 +7°C° 1.3 mm 9 mps 755 mmHg 94%
    19:00 +7°C° 1.7 mm 10 mps 754 mmHg 94%
    20:00 +7°C° 1.7 mm 11 mps 752 mmHg 94%
    21:00 +8°C° 1.7 mm 13 mps 750 mmHg 94%
    22:00 +9°C° 2.2 mm 12 mps 748 mmHg 95%
    23:00 +11°C° 2.2 mm 11 mps 746 mmHg 96%

    23 September, Sunday

    Time Temperature Precipitation Wind Pressure Humidity
    00:00 +12°C° 2.2 mm 11 mps 744 mmHg 97%
    01:00 +13°C° 2.1 mm 11 mps 742 mmHg 96%
    02:00 +14°C° 2.1 mm 11 mps 740 mmHg 95%
    03:00 +16°C° 2.1 mm 11 mps 738 mmHg 94%
    04:00 +14°C° 1.7 mm 11 mps 736 mmHg 93%
    05:00 +13°C° 1.7 mm 10 mps 734 mmHg 92%
    06:00 +12°C° 1.7 mm 9 mps 732 mmHg 91%
    07:00 +11°C° 0.2 mm 10 mps 733 mmHg 91%
    08:00 +11°C° 0.2 mm 10 mps 733 mmHg 91%
    09:00 +11°C° 0.2 mm 11 mps 734 mmHg 91%
    10:00 +9°C° 0.4 mm 13 mps 737 mmHg 89%
    11:00 +8°C° 0.4 mm 15 mps 740 mmHg 87%
    12:00 +6°C° 0.4 mm 17 mps 744 mmHg 84%
    13:00 +7°C° 0.1 mm 17 mps 747 mmHg 77%
    14:00 +9°C° 0.1 mm 17 mps 751 mmHg 70%
    15:00 +9°C° 0.1 mm 17 mps 754 mmHg 63%
    16:00 +9°C° 0 mm 16 mps 756 mmHg 64%
    17:00 +8°C° 0 mm 15 mps 758 mmHg 65%
    18:00 +8°C° 0 mm 14 mps 760 mmHg 65%
    19:00 +7°C° 0 mm 13 mps 762 mmHg 66%
    20:00 +7°C° 0 mm 12 mps 763 mmHg 66%
    21:00 +6°C° 0 mm 11 mps 765 mmHg 66%
    22:00 +6°C° 0 mm 10 mps 766 mmHg 67%
    23:00 +6°C° 0 mm 10 mps 767 mmHg 68%
    Show more